Hourly Weather Rudyanskoe

Today, 23 April, Friday

Time Temperature Precipitation Wind Pressure Humidity
00:00 +7°C° 0 mm 2 mps 757 mmHg 61%
01:00 +7°C° 0 mm 2 mps 757 mmHg 64%
02:00 +7°C° 0 mm 1 mps 757 mmHg 66%
03:00 +7°C° 0 mm 1 mps 757 mmHg 69%
04:00 +6°C° 0 mm 0 mps 757 mmHg 71%
05:00 +7°C° 0 mm 1 mps 757 mmHg 69%
06:00 +8°C° 0 mm 1 mps 757 mmHg 68%
07:00 +7°C° 0 mm 2 mps 757 mmHg 66%
08:00 +8°C° 0 mm 3 mps 757 mmHg 63%
09:00 +8°C° 0 mm 4 mps 757 mmHg 60%
10:00 +9°C° 0 mm 5 mps 757 mmHg 57%
11:00 +9°C° 0 mm 5 mps 757 mmHg 58%
12:00 +10°C° 0 mm 4 mps 757 mmHg 59%
13:00 +10°C° 0 mm 4 mps 757 mmHg 61%
14:00 +10°C° 0.1 mm 3 mps 757 mmHg 61%
15:00 +10°C° 0.1 mm 3 mps 757 mmHg 62%
16:00 +10°C° 0.1 mm 2 mps 756 mmHg 62%
17:00 +10°C° 0 mm 2 mps 756 mmHg 65%
18:00 +10°C° 0 mm 1 mps 756 mmHg 68%
19:00 +9°C° 0 mm 0 mps 756 mmHg 70%
20:00 +8°C° 0 mm 0 mps 756 mmHg 72%
21:00 +9°C° 0 mm 1 mps 756 mmHg 75%
22:00 +9°C° 0 mm 1 mps 755 mmHg 77%
23:00 +9°C° 0.1 mm 1 mps 755 mmHg 79%

Tomorrow, 24 April, Saturday

Time Temperature Precipitation Wind Pressure Humidity
00:00 +8°C° 0.1 mm 1 mps 755 mmHg 81%
01:00 +8°C° 0.1 mm 1 mps 754 mmHg 83%
02:00 +7°C° 0.1 mm 2 mps 754 mmHg 83%
03:00 +7°C° 0.1 mm 2 mps 754 mmHg 83%
04:00 +7°C° 0.1 mm 2 mps 753 mmHg 84%
05:00 +7°C° 0.3 mm 2 mps 753 mmHg 85%
06:00 +7°C° 0.3 mm 3 mps 753 mmHg 87%
07:00 +6°C° 0.3 mm 4 mps 753 mmHg 88%
08:00 +6°C° 0.1 mm 4 mps 752 mmHg 87%
09:00 +5°C° 0.1 mm 4 mps 752 mmHg 85%
10:00 +5°C° 0.1 mm 4 mps 752 mmHg 84%
11:00 +5°C° 0.1 mm 4 mps 752 mmHg 83%
12:00 +5°C° 0.1 mm 4 mps 751 mmHg 81%
13:00 +5°C° 0.1 mm 4 mps 751 mmHg 80%
14:00 +5°C° 0.2 mm 4 mps 751 mmHg 83%
15:00 +5°C° 0.2 mm 4 mps 750 mmHg 86%
16:00 +5°C° 0.2 mm 4 mps 750 mmHg 89%
17:00 +5°C° 0.1 mm 3 mps 750 mmHg 82%
18:00 +5°C° 0.1 mm 3 mps 749 mmHg 75%
19:00 +7°C° 0.1 mm 3 mps 749 mmHg 68%
20:00 +5°C° 0 mm 4 mps 749 mmHg 65%
21:00 +5°C° 0 mm 4 mps 748 mmHg 62%
22:00 +5°C° 0 mm 4 mps 748 mmHg 60%
23:00 +5°C° 0 mm 4 mps 747 mmHg 61%

Day after tomorrow, 25 April, Sunday

Time Temperature Precipitation Wind Pressure Humidity
00:00 +4°C° 0 mm 4 mps 747 mmHg 62%
01:00 +4°C° 0 mm 4 mps 747 mmHg 63%
02:00 +4°C° 0 mm 4 mps 746 mmHg 68%
03:00 +3°C° 0 mm 3 mps 746 mmHg 73%
04:00 +3°C° 0 mm 3 mps 746 mmHg 79%
05:00 +3°C° 0 mm 3 mps 746 mmHg 81%
06:00 +3°C° 0 mm 3 mps 746 mmHg 84%
07:00 +3°C° 0 mm 3 mps 745 mmHg 87%
08:00 +5°C° 0 mm 4 mps 745 mmHg 76%
09:00 +7°C° 0 mm 4 mps 744 mmHg 64%
10:00 +9°C° 0 mm 5 mps 744 mmHg 53%
11:00 +9°C° 0 mm 5 mps 743 mmHg 52%
12:00 +10°C° 0 mm 5 mps 743 mmHg 51%
13:00 +10°C° 0 mm 5 mps 743 mmHg 50%
14:00 +9°C° 0 mm 5 mps 743 mmHg 53%
15:00 +10°C° 0 mm 4 mps 742 mmHg 57%
16:00 +8°C° 0 mm 4 mps 742 mmHg 61%
17:00 +8°C° 0.2 mm 4 mps 742 mmHg 65%
18:00 +9°C° 0.2 mm 3 mps 741 mmHg 70%
19:00 +8°C° 0.2 mm 3 mps 741 mmHg 75%
20:00 +6°C° 1.3 mm 4 mps 741 mmHg 78%
21:00 +6°C° 1.3 mm 4 mps 741 mmHg 81%
22:00 +5°C° 1.3 mm 5 mps 741 mmHg 84%
23:00 +5°C° 0.3 mm 5 mps 741 mmHg 83%

26 April, Monday

Time Temperature Precipitation Wind Pressure Humidity
00:00 +5°C° 0.3 mm 5 mps 741 mmHg 82%
01:00 +3°C° 0.3 mm 5 mps 741 mmHg 82%
02:00 +3°C° 0 mm 5 mps 742 mmHg 80%
03:00 +3°C° 0 mm 5 mps 742 mmHg 78%
04:00 +2°C° 0 mm 5 mps 743 mmHg 76%
05:00 +3°C° 0 mm 5 mps 743 mmHg 74%
06:00 +3°C° 0 mm 5 mps 743 mmHg 73%
07:00 +5°C° 0 mm 5 mps 744 mmHg 71%
08:00 +5°C° 0 mm 6 mps 744 mmHg 62%
09:00 +7°C° 0 mm 6 mps 744 mmHg 54%
10:00 +8°C° 0 mm 7 mps 744 mmHg 45%
11:00 +8°C° 0 mm 7 mps 744 mmHg 43%
12:00 +9°C° 0 mm 7 mps 744 mmHg 40%
13:00 +9°C° 0 mm 7 mps 744 mmHg 38%
14:00 +10°C° 0 mm 6 mps 744 mmHg 38%
15:00 +10°C° 0 mm 6 mps 744 mmHg 37%
16:00 +10°C° 0 mm 6 mps 744 mmHg 37%
17:00 +9°C° 0 mm 6 mps 745 mmHg 41%
18:00 +8°C° 0 mm 5 mps 745 mmHg 46%
19:00 +7°C° 0 mm 5 mps 745 mmHg 51%
20:00 +7°C° 0 mm 5 mps 745 mmHg 54%
21:00 +6°C° 0 mm 4 mps 745 mmHg 57%
22:00 +5°C° 0 mm 4 mps 745 mmHg 60%
23:00 +5°C° 0 mm 4 mps 745 mmHg 62%

27 April, Tuesday

Time Temperature Precipitation Wind Pressure Humidity
00:00 +4°C° 0 mm 4 mps 745 mmHg 63%
01:00 +4°C° 0 mm 4 mps 745 mmHg 65%
02:00 +3°C° 0 mm 4 mps 745 mmHg 67%
03:00 +3°C° 0 mm 3 mps 745 mmHg 69%
04:00 +3°C° 0 mm 2 mps 745 mmHg 71%
05:00 +4°C° 0 mm 2 mps 745 mmHg 68%
06:00 +5°C° 0 mm 2 mps 744 mmHg 64%
07:00 +6°C° 0 mm 2 mps 744 mmHg 60%
08:00 +7°C° 0 mm 2 mps 744 mmHg 55%
09:00 +9°C° 0 mm 3 mps 743 mmHg 49%
10:00 +10°C° 0 mm 3 mps 743 mmHg 44%
11:00 +11°C° 0 mm 3 mps 743 mmHg 43%
12:00 +11°C° 0 mm 3 mps 742 mmHg 43%
13:00 +13°C° 0 mm 2 mps 742 mmHg 42%
14:00 +13°C° 0 mm 2 mps 741 mmHg 41%
15:00 +13°C° 0 mm 2 mps 741 mmHg 41%
16:00 +14°C° 0 mm 2 mps 740 mmHg 40%
17:00 +12°C° 0 mm 2 mps 740 mmHg 46%
18:00 +10°C° 0 mm 2 mps 740 mmHg 52%
19:00 +9°C° 0 mm 2 mps 740 mmHg 58%
20:00 +8°C° 0 mm 2 mps 739 mmHg 67%
21:00 +7°C° 0 mm 2 mps 739 mmHg 76%
22:00 +6°C° 0 mm 2 mps 739 mmHg 86%
23:00 +5°C° 0 mm 2 mps 739 mmHg 87%

28 April, Wednesday

Time Temperature Precipitation Wind Pressure Humidity
00:00 +5°C° 0 mm 2 mps 739 mmHg 89%
01:00 +4°C° 0 mm 2 mps 739 mmHg 91%
02:00 +4°C° 0 mm 2 mps 739 mmHg 90%
03:00 +4°C° 0 mm 2 mps 739 mmHg 89%
04:00 +4°C° 0 mm 2 mps 738 mmHg 89%
05:00 +5°C° 0 mm 2 mps 738 mmHg 83%
06:00 +5°C° 0 mm 3 mps 738 mmHg 77%
07:00 +7°C° 0 mm 3 mps 737 mmHg 71%
08:00 +5°C° 0.3 mm 4 mps 738 mmHg 73%
09:00 +4°C° 0.3 mm 4 mps 738 mmHg 75%
10:00 +4°C° 0.3 mm 4 mps 738 mmHg 76%
11:00 +6°C° 0 mm 5 mps 737 mmHg 62%
12:00 +8°C° 0 mm 5 mps 737 mmHg 48%
13:00 +10°C° 0 mm 6 mps 736 mmHg 34%
14:00 +10°C° 0 mm 6 mps 737 mmHg 35%
15:00 +10°C° 0 mm 5 mps 737 mmHg 35%
16:00 +10°C° 0 mm 5 mps 737 mmHg 35%
17:00 +9°C° 0 mm 5 mps 737 mmHg 37%
18:00 +8°C° 0 mm 5 mps 737 mmHg 40%
19:00 +7°C° 0 mm 5 mps 738 mmHg 42%
20:00 +6°C° 0 mm 5 mps 738 mmHg 48%
21:00 +5°C° 0 mm 5 mps 738 mmHg 54%
22:00 +3°C° 0 mm 5 mps 738 mmHg 60%
23:00 +2°C° 0 mm 5 mps 738 mmHg 67%
Show more